Retour au catalogue

SJ-9A

ActifScienceSSO
NORAD 38860·PAYLOAD·🇨🇳 China

Lancé Oct 14, 2012 depuis Taiyuan Satellite Launch Center

Loading…

Prochains Passages (prochaines 24 heures)

TLE

FraisSource: Space-Track

Époque: Sep 14, 2026, 13:06 UTC

1 38860U 12056A   26257.54605898  .00000863  00000-0  10527-3 0  9991
2 38860  97.6824 226.3243 0024631 326.4700  33.4956 14.85640633712856

Suivez SJ-9A en temps réel avec AllMySat

Download on the App Store